Gainesville, FL

4:36 PM EST on December 09, 2019 (GMT -0500)
Gainesville Regional

Weather History for KGNV - October, 2019

Change the Weather History Date:

Tuesday, October 1, 2019

  Actual Average Record
Temperature  
Mean Temperature 82 °F 75 °F  
Max Temperature 91 °F 85 °F 94 °F (1958)
Min Temperature 72 °F 66 °F 40 °F (1920)
Degree Days  
Heating Degree Days 0 0  
Month to date heating degree days 0  
Since 1 July heating degree days 0  
Cooling Degree Days 16 10  
Month to date cooling degree days 10  
Year to date cooling degree days 2350  
Growing Degree Days 32 (Base 50)    
Moisture  
Dew Point 71 °F    
Average Humidity 82    
Maximum Humidity 93    
Minimum Humidity 46    
Precipitation  
Precipitation 0.05 in 0.14 in 1.79 in (1951)
Month to date precipitation 0.14  
Year to date precipitation 40.13  
Snow  
Snow 0.00 in 0.00 in 0.00 in ()
Month to date snowfall 0.0  
Since 1 July snowfall 0.0  
Since 1 September snowfall 0.0  
Snow Depth -    
Sea Level Pressure  
Sea Level Pressure 30.04 in    
Wind  
Wind Speed 7 mph (NE)    
Max Wind Speed 17 mph    
Max Gust Speed 26 mph    
Visibility 8 miles    
Events Rain    
T = Trace of Precipitation, MM = Missing Value Source: NWS Daily Summary

Daily Weather History Graph

Daily Weather History Graph

Search for Another Location

Airport or City:

Astronomy

Oct. 01, 2019 Rise Set
Actual Time 7:22 AM EDT 7:14 PM EDT
Civil Twilight 6:58 AM EDT 7:38 PM EDT
Nautical Twilight 6:30 AM EDT 8:06 PM EDT
Astronomical Twilight 6:03 AM EDT 8:33 PM EDT
Moon 10:24 AM EDT (10/1) 9:41 PM EDT (10/1)
Length of Visible Light 12h 40m
Length of Day
11h 52m
Waxing Crescent, 12% of the Moon is Illuminated
Oct 1
Waxing Crescent
Oct 5
First Quarter
Oct 13
Full
Oct 21
Last Quarter
Oct 27
New

Hourly Weather History & Observations

Time (EDT) Temp. Heat Index Dew Point Humidity Pressure Visibility Wind Dir Wind Speed Gust Speed Precip Events Conditions
12:53 AM 73.9 °F - 71.1 °F 91% 30.06 in 7.0 mi NE 4.6 mph - N/A   Clear
1:53 AM 73.9 °F - 71.1 °F 91% 30.05 in 6.0 mi NE 4.6 mph - N/A   Clear
2:53 AM 75.0 °F - 72.0 °F 90% 30.04 in 7.0 mi NNE 6.9 mph - N/A   Clear
3:53 AM 75.0 °F - 72.0 °F 90% 30.01 in 6.0 mi NE 5.8 mph - N/A   Clear
4:53 AM 75.0 °F - 72.0 °F 90% 30.01 in 6.0 mi NE 6.9 mph - N/A   Partly Cloudy
5:53 AM 73.9 °F - 72.0 °F 93% 30.02 in 5.0 mi NE 6.9 mph - N/A   Clear
6:53 AM 73.0 °F - 71.1 °F 93% 30.03 in 5.0 mi NE 4.6 mph - N/A   Clear
7:53 AM 73.0 °F - 71.1 °F 93% 30.04 in 4.0 mi NE 4.6 mph - N/A   Clear
8:53 AM 78.1 °F - 73.0 °F 84% 30.06 in 8.0 mi NE 6.9 mph - N/A   Clear
9:53 AM 82.0 °F 86.7 °F 72.0 °F 71% 30.07 in 10.0 mi ENE 10.4 mph - N/A   Clear
11:53 AM 87.1 °F 92.0 °F 70.0 °F 57% 30.08 in 10.0 mi NE 13.8 mph - N/A   Scattered Clouds
12:53 PM 90.0 °F 93.6 °F 68.0 °F 48% 30.06 in 10.0 mi ENE 13.8 mph 19.6 mph N/A   Scattered Clouds
2:53 PM 90.0 °F 92.8 °F 66.9 °F 46% 30.01 in 10.0 mi NE 10.4 mph 19.6 mph N/A   Scattered Clouds
3:53 PM 90.0 °F 92.8 °F 66.9 °F 46% 30.00 in 10.0 mi ENE 12.7 mph 24.2 mph N/A   Scattered Clouds
4:53 PM 75.9 °F - 72.0 °F 87% 30.02 in 3.0 mi ENE 17.3 mph 26.5 mph 0.03 in Rain Heavy Rain
5:03 PM 75.9 °F - 72.0 °F 87% 30.03 in 9.0 mi ENE 13.8 mph - 0.02 in Rain Light Rain
5:53 PM 75.9 °F - 72.0 °F 87% 30.02 in 10.0 mi ENE 5.8 mph - 0.02 in   Overcast
6:53 PM 77.0 °F - 72.0 °F 84% 30.03 in 10.0 mi ENE 5.8 mph - N/A   Overcast
7:53 PM 75.0 °F - 71.1 °F 87% 30.03 in 10.0 mi NE 6.9 mph - N/A   Clear
8:53 PM 73.9 °F - 71.1 °F 91% 30.03 in 10.0 mi NE 3.5 mph - N/A   Clear
9:53 PM 73.0 °F - 70.0 °F 90% 30.04 in 10.0 mi NE 3.5 mph - N/A   Clear
10:53 PM 73.9 °F - 71.1 °F 91% 30.04 in 10.0 mi NE 5.8 mph - N/A   Clear
11:53 PM 72.0 °F - 70.0 °F 93% 30.03 in 9.0 mi NE 3.5 mph - N/A   Clear